User: anonymous   Login
Location: Unspecified
(0.0000°N, 0.0000°E)
Time: 08:41:17
(UTC+00:00)
Language:

Picosat 9 - Orbit

View from above orbital plane
View from above orbital plane
View from above satellite
View from above satellite

Ground track
Ground track

The orbit data is extracted from the following two-line orbital elements,

1 26930U 01043B   18267.49345233 -.00000033 +00000-0 +19393-4 0  9991
2 26930 067.0002 288.7877 0010410 286.9756 073.0203 14.30679309886901
Epoch (UTC): 24 September 2018 11:50:34
Eccentricity: 0.0010410
inclination: 67.0002°
perigee height: 782 km
apogee height: 797 km
right ascension of ascending node: 288.7877°
argument of perigee: 286.9756°
revolutions per day: 14.30679309
mean anomaly at epoch: 73.0203°
orbit number at epoch: 88690

The dashed part of the orbit path shows where the satellite is in the earth's shadow,  

DLR